"Pseudo-MPEC" for ZTF0KcP

Created 2021 Mar 4 14:07:14 UT using Find_Orb

Click here for an explanation of pseudo-MPECs

 
 Astrometry: 
     ZTF0KcP  C2021 02 19.55456920 27 23.29 +27 10 17.7    ~2K77 19.55rUNEOCPI41
     ZTF0KcP  C2021 02 19.55700020 27 23.41 +27 10 19.6    ~2K77 19.41rUNEOCPI41
     ZTF0KcP  C2021 02 19.55943120 27 23.52 +27 10 21.3    ~2K77 19.22rUNEOCPI41
     ZTF0KcP  C2021 02 19.56429120 27 23.76 +27 10 24.6    ~2K77 19.21rUNEOCPI41
     ZTF0KcP KC2021 02 23'0AstrometryZpeXQ\d;9WAkredacted;%(vRN=IPLZ'p,dt4O.*W33
     ZTF0KcP KC2021 02 23n@F]\0RPclickBshereA!UqS*hW4;for7;1DY+X.mexplanationW33

Station data:
(I41) Palomar Mountain--ZTF  (N33.357340 W116.859780)  US/California. 1.2-m
   f/2.44 Oschin Schmidt + CCD.
(W33) Transit Dreams Observatory, Campobello  (N35.077819 W82.165490)
   US/South Carolina.

Orbital elements:  ZTF0KcP
   Perihelion 2020 Oct 26.614751 +/- 4.707 TT = 14:45:14 (JD 2459149.114751)
Epoch 2021 Feb 23.0 TT = JDT 2459268.5   Earth MOID: 0.0607   Ve: 0.0319
M 149.76917589 +/- 5.1841536        (J2000 ecliptic)          AutoNEOCP
n   1.25450319 +/- 0.0145737        Peri.  328.07474 +/- 12.782566
a   0.85144160 +/- 0.0065942        Node    31.57356 +/- 8.9904742
e   0.1109502 +/- 0.0104544         Incl.    4.18638 +/- 0.5097637
P   0.79/286.96d           H 19.4   G  0.15   U  9.9  
q 0.75697397 +/- 0.0138915    Q 0.94590923 +/- 0.00564023
From 6 observations 2021 Feb. 19-23; mean residual 0".17
Residuals in arcseconds: 
210219 I41  .31-  .17-    210219 I41  .03-  .08+    210223 W33  .04-  .05-    
210219 I41  .11-  .05+    210219 I41  .46+  .04+    210223 W33  .04+  .05+    

Ephemerides (geocentric):
Date (UTC) HH   RA              Dec         delta   r     elong  mag " sig PA
---- -- -- --  -------------   -----------  ------ ------ -----  --- ---- ---
2021 03 04 14  20 48 32.943   +26 54 17.04  .07372 .94206  46.1 19??  160  87
2021 03 04 15  20 48 39.105   +26 53 51.00  .07369 .94209  46.1 19??  161  87
2021 03 04 16  20 48 45.281   +26 53 24.80  .07366 .94211  46.1 19??  163  87
2021 03 04 17  20 48 51.472   +26 52 58.45  .07363 .94213  46.1 19??  165  87
2021 03 04 18  20 48 57.677   +26 52 31.96  .07360 .94215  46.1 19??  166  88
2021 03 04 19  20 49 03.897   +26 52 05.31  .07357 .94217  46.1 19??  168  88
2021 03 04 20  20 49 10.132   +26 51 38.52  .07354 .94220  46.1 19??  170  88
2021 03 04 21  20 49 16.381   +26 51 11.57  .07352 .94222  46.1 19??  171  88
2021 03 04 22  20 49 22.644   +26 50 44.48  .07349 .94224  46.1 19??  173  88
2021 03 04 23  20 49 28.923   +26 50 17.23  .07346 .94226  46.1 19??  175  88
2021 03 05 00  20 49 35.216   +26 49 49.83  .07343 .94228  46.0 19??  176  88
2021 03 05 01  20 49 41.523   +26 49 22.29  .07340 .94230  46.0 19??  178  88
2021 03 05 02  20 49 47.845   +26 48 54.59  .07337 .94232  46.0 19??  180  88
2021 03 05 03  20 49 54.181   +26 48 26.75  .07334 .94235  46.0 19??  182  88
2021 03 05 04  20 50 00.533   +26 47 58.75  .07331 .94237  46.0 19??  183  88
2021 03 05 05  20 50 06.898   +26 47 30.60  .07329 .94239  46.0 19??  185  88
2021 03 05 06  20 50 13.279   +26 47 02.30  .07326 .94241  46.0 19??  187  89
2021 03 05 07  20 50 19.674   +26 46 33.86  .07323 .94243  46.0 19??  189  89
2021 03 05 08  20 50 26.083   +26 46 05.26  .07320 .94245  46.0 19??  190  89
2021 03 05 09  20 50 32.507   +26 45 36.51  .07317 .94247  46.0 19??  192  89
2021 03 05 10  20 50 38.946   +26 45 07.61  .07314 .94249  46.0 19??  194  89
2021 03 05 11  20 50 45.400   +26 44 38.56  .07311 .94251  46.0 19??  196  89
2021 03 05 12  20 50 51.868   +26 44 09.36  .07309 .94253  45.9 19??  198  89
2021 03 05 13  20 50 58.350   +26 43 40.01  .07306 .94255  45.9 19??  200  89
2021 03 05 14  20 51 04.848   +26 43 10.50  .07303 .94258  45.9 19??  201  89
2021 03 05 15  20 51 11.359   +26 42 40.85  .07300 .94260  45.9 19??  203  89
2021 03 05 16  20 51 17.886   +26 42 11.04  .07297 .94262  45.9 19??  205  89
2021 03 05 17  20 51 24.427   +26 41 41.09  .07294 .94264  45.9 19??  207  89
2021 03 05 18  20 51 30.983   +26 41 10.98  .07292 .94266  45.9 19??  209  89
2021 03 05 19  20 51 37.553   +26 40 40.73  .07289 .94268  45.9 19??  211  89
2021 03 05 20  20 51 44.138   +26 40 10.32  .07286 .94270  45.9 19??  213  90
2021 03 05 21  20 51 50.738   +26 39 39.76  .07283 .94272  45.9 19??  215  90
2021 03 05 22  20 51 57.352   +26 39 09.05  .07280 .94274  45.8 19??  217  90
2021 03 05 23  20 52 03.981   +26 38 38.18  .07277 .94276  45.8 19??  219  90
2021 03 06 00  20 52 10.625   +26 38 07.17  .07275 .94278  45.8 19??  221  90
2021 03 06 01  20 52 17.283   +26 37 36.00  .07272 .94280  45.8 19??  223  90
2021 03 06 02  20 52 23.956   +26 37 04.69  .07269 .94282  45.8 19??  225  90
2021 03 06 03  20 52 30.644   +26 36 33.22  .07266 .94284  45.8 19??  227  90
2021 03 06 04  20 52 37.346   +26 36 01.60  .07263 .94286  45.8 19??  229  90
2021 03 06 05  20 52 44.063   +26 35 29.83  .07261 .94288  45.8 19??  231  90
2021 03 06 06  20 52 50.794   +26 34 57.90  .07258 .94290  45.8 19??  233  90
2021 03 06 07  20 52 57.540   +26 34 25.83  .07255 .94292  45.8 19??  235  90
2021 03 06 08  20 53 04.301   +26 33 53.60  .07252 .94294  45.7 19??  237  90
2021 03 06 09  20 53 11.077   +26 33 21.22  .07250 .94295  45.7 19??  239  90
2021 03 06 10  20 53 17.867   +26 32 48.69  .07247 .94297  45.7 19??  241  91
2021 03 06 11  20 53 24.671   +26 32 16.01  .07244 .94299  45.7 19??  243  91
2021 03 06 12  20 53 31.491   +26 31 43.17  .07241 .94301  45.7 19??  245  91
2021 03 06 13  20 53 38.325   +26 31 10.19  .07238 .94303  45.7 19??  248  91